EN

Hourly Weather Kościan

Today, 29 October, Thursday

Time Temperature Precipitation Wind Pressure Humidity
00:00 +9°C° 0 mm 3 mps 753 mmHg 86%
01:00 +9°C° 0 mm 3 mps 753 mmHg 87%
02:00 +9°C° 0 mm 3 mps 753 mmHg 86%
03:00 +9°C° 0 mm 3 mps 753 mmHg 85%
04:00 +8°C° 0 mm 4 mps 752 mmHg 85%
05:00 +8°C° 0 mm 4 mps 752 mmHg 85%
06:00 +8°C° 0 mm 4 mps 752 mmHg 85%
07:00 +8°C° 0 mm 4 mps 752 mmHg 83%
08:00 +9°C° 0.1 mm 5 mps 752 mmHg 83%
09:00 +9°C° 0.1 mm 5 mps 752 mmHg 83%
10:00 +10°C° 0.1 mm 6 mps 752 mmHg 83%
11:00 +11°C° 0.1 mm 6 mps 752 mmHg 77%
12:00 +11°C° 0.1 mm 6 mps 752 mmHg 70%
13:00 +13°C° 0 mm 6 mps 753 mmHg 64%
14:00 +11°C° 0.1 mm 6 mps 753 mmHg 65%
15:00 +10°C° 0.1 mm 5 mps 753 mmHg 67%
16:00 +9°C° 0.1 mm 5 mps 754 mmHg 69%
17:00 +10°C° 0 mm 4 mps 754 mmHg 72%
18:00 +8°C° 0 mm 4 mps 755 mmHg 75%
19:00 +7°C° 0 mm 4 mps 756 mmHg 78%
20:00 +7°C° 0 mm 4 mps 756 mmHg 80%
21:00 +7°C° 0 mm 4 mps 756 mmHg 82%
22:00 +6°C° 0 mm 4 mps 757 mmHg 83%
23:00 +6°C° 0 mm 4 mps 757 mmHg 85%

Tomorrow, 30 October, Friday

Time Temperature Precipitation Wind Pressure Humidity
00:00 +6°C° 0 mm 4 mps 757 mmHg 86%
01:00 +6°C° 0 mm 4 mps 757 mmHg 88%
02:00 +7°C° 0 mm 3 mps 757 mmHg 87%
03:00 +7°C° 0 mm 3 mps 757 mmHg 87%
04:00 +7°C° 0 mm 3 mps 756 mmHg 87%
05:00 +7°C° 0.2 mm 3 mps 756 mmHg 88%
06:00 +7°C° 0.2 mm 3 mps 756 mmHg 89%
07:00 +7°C° 0.2 mm 3 mps 756 mmHg 90%
08:00 +7°C° 0.8 mm 3 mps 756 mmHg 91%
09:00 +7°C° 0.8 mm 4 mps 755 mmHg 92%
10:00 +7°C° 0.8 mm 4 mps 755 mmHg 93%
11:00 +7°C° 1.3 mm 4 mps 755 mmHg 94%
12:00 +9°C° 1.3 mm 3 mps 755 mmHg 96%
13:00 +9°C° 1.3 mm 3 mps 755 mmHg 97%
14:00 +10°C° 0.7 mm 4 mps 755 mmHg 96%
15:00 +11°C° 0.7 mm 4 mps 755 mmHg 95%
16:00 +10°C° 0.7 mm 5 mps 755 mmHg 94%
17:00 +12°C° 0.4 mm 5 mps 755 mmHg 95%
18:00 +12°C° 0.4 mm 5 mps 755 mmHg 95%
19:00 +12°C° 0.4 mm 5 mps 756 mmHg 95%
20:00 +12°C° 0.5 mm 5 mps 756 mmHg 95%
21:00 +12°C° 0.5 mm 5 mps 756 mmHg 94%
22:00 +13°C° 0.5 mm 5 mps 757 mmHg 94%
23:00 +13°C° 0.3 mm 5 mps 757 mmHg 93%

Day after tomorrow, 31 October, Saturday

Time Temperature Precipitation Wind Pressure Humidity
00:00 +13°C° 0.3 mm 5 mps 757 mmHg 93%
01:00 +13°C° 0.3 mm 5 mps 758 mmHg 93%
02:00 +12°C° 0 mm 4 mps 758 mmHg 93%
03:00 +12°C° 0 mm 4 mps 759 mmHg 94%
04:00 +12°C° 0 mm 3 mps 759 mmHg 94%
05:00 +11°C° 0 mm 3 mps 759 mmHg 95%
06:00 +12°C° 0 mm 2 mps 760 mmHg 95%
07:00 +12°C° 0 mm 2 mps 760 mmHg 96%
08:00 +12°C° 0 mm 1 mps 760 mmHg 95%
09:00 +13°C° 0 mm 1 mps 761 mmHg 93%
10:00 +13°C° 0 mm 1 mps 761 mmHg 92%
11:00 +14°C° 0 mm 1 mps 761 mmHg 87%
12:00 +15°C° 0 mm 1 mps 761 mmHg 83%
13:00 +15°C° 0 mm 1 mps 761 mmHg 78%
14:00 +15°C° 0 mm 1 mps 761 mmHg 80%
15:00 +15°C° 0 mm 1 mps 760 mmHg 81%
16:00 +14°C° 0 mm 1 mps 760 mmHg 83%
17:00 +14°C° 0 mm 2 mps 760 mmHg 84%
18:00 +13°C° 0 mm 2 mps 760 mmHg 86%
19:00 +13°C° 0 mm 2 mps 761 mmHg 88%
20:00 +12°C° 0 mm 3 mps 760 mmHg 88%
21:00 +11°C° 0 mm 3 mps 760 mmHg 89%
22:00 +11°C° 0 mm 4 mps 760 mmHg 90%
23:00 +11°C° 0 mm 4 mps 760 mmHg 91%

1 November, Sunday

Time Temperature Precipitation Wind Pressure Humidity
00:00 +10°C° 0 mm 4 mps 760 mmHg 91%
01:00 +10°C° 0 mm 4 mps 759 mmHg 92%
02:00 +8°C° 0 mm 4 mps 759 mmHg 92%
03:00 +8°C° 0 mm 4 mps 758 mmHg 92%
04:00 +8°C° 0 mm 4 mps 758 mmHg 92%
05:00 +8°C° 0 mm 4 mps 758 mmHg 92%
06:00 +8°C° 0 mm 4 mps 758 mmHg 91%
07:00 +8°C° 0 mm 4 mps 757 mmHg 91%
08:00 +10°C° 0 mm 4 mps 757 mmHg 88%
09:00 +11°C° 0 mm 4 mps 757 mmHg 84%
10:00 +12°C° 0 mm 4 mps 757 mmHg 81%
11:00 +13°C° 0 mm 4 mps 756 mmHg 79%
12:00 +14°C° 0 mm 4 mps 756 mmHg 77%
13:00 +15°C° 0 mm 5 mps 755 mmHg 74%
14:00 +14°C° 0.1 mm 4 mps 755 mmHg 78%
15:00 +14°C° 0.1 mm 4 mps 755 mmHg 81%
16:00 +13°C° 0.1 mm 4 mps 754 mmHg 84%
17:00 +13°C° 1 mm 4 mps 754 mmHg 87%
18:00 +13°C° 1 mm 4 mps 754 mmHg 89%
19:00 +12°C° 1 mm 4 mps 754 mmHg 92%
20:00 +12°C° 0.2 mm 4 mps 754 mmHg 91%
21:00 +13°C° 0.2 mm 4 mps 754 mmHg 90%
22:00 +13°C° 0.2 mm 4 mps 754 mmHg 89%
23:00 +13°C° 0 mm 4 mps 753 mmHg 90%

2 November, Monday

Time Temperature Precipitation Wind Pressure Humidity
00:00 +12°C° 0 mm 4 mps 753 mmHg 90%
01:00 +12°C° 0 mm 4 mps 753 mmHg 90%
02:00 +12°C° 0.1 mm 4 mps 753 mmHg 90%
03:00 +12°C° 0.1 mm 4 mps 753 mmHg 90%
04:00 +12°C° 0.1 mm 4 mps 752 mmHg 90%
05:00 +13°C° 1 mm 4 mps 752 mmHg 91%
06:00 +13°C° 1 mm 5 mps 752 mmHg 92%
07:00 +13°C° 1 mm 5 mps 752 mmHg 93%
08:00 +14°C° 0.1 mm 5 mps 752 mmHg 89%
09:00 +15°C° 0.1 mm 6 mps 752 mmHg 85%
10:00 +16°C° 0.1 mm 6 mps 752 mmHg 81%
11:00 +17°C° 0 mm 6 mps 752 mmHg 79%
12:00 +17°C° 0 mm 7 mps 752 mmHg 77%
13:00 +18°C° 0 mm 7 mps 752 mmHg 75%
14:00 +19°C° 0 mm 6 mps 752 mmHg 76%
15:00 +17°C° 0 mm 6 mps 752 mmHg 78%
16:00 +17°C° 0 mm 5 mps 752 mmHg 79%
17:00 +17°C° 0 mm 5 mps 752 mmHg 79%
18:00 +17°C° 0 mm 5 mps 753 mmHg 80%
19:00 +17°C° 0 mm 5 mps 753 mmHg 80%
20:00 +16°C° 0 mm 5 mps 753 mmHg 80%
21:00 +16°C° 0 mm 5 mps 753 mmHg 80%
22:00 +16°C° 0 mm 5 mps 753 mmHg 81%
23:00 +16°C° 0 mm 5 mps 754 mmHg 82%

3 November, Tuesday

Time Temperature Precipitation Wind Pressure Humidity
00:00 +15°C° 0 mm 5 mps 754 mmHg 83%
01:00 +15°C° 0 mm 5 mps 754 mmHg 85%
02:00 +15°C° 0 mm 5 mps 755 mmHg 85%
03:00 +15°C° 0 mm 4 mps 755 mmHg 86%
04:00 +15°C° 0 mm 4 mps 755 mmHg 86%
05:00 +14°C° 0 mm 4 mps 756 mmHg 86%
06:00 +13°C° 0 mm 3 mps 757 mmHg 87%
07:00 +13°C° 0 mm 3 mps 758 mmHg 87%
08:00 +13°C° 0 mm 3 mps 758 mmHg 83%
09:00 +14°C° 0 mm 3 mps 759 mmHg 78%
10:00 +14°C° 0 mm 3 mps 759 mmHg 73%
11:00 +15°C° 0 mm 2 mps 759 mmHg 69%
12:00 +15°C° 0 mm 2 mps 760 mmHg 65%
13:00 +16°C° 0 mm 1 mps 760 mmHg 61%
14:00 +15°C° 0 mm 1 mps 760 mmHg 63%
15:00 +15°C° 0 mm 1 mps 760 mmHg 66%
16:00 +13°C° 0 mm 0 mps 760 mmHg 68%
17:00 +14°C° 0.2 mm 1 mps 760 mmHg 71%
18:00 +13°C° 0.2 mm 1 mps 760 mmHg 75%
19:00 +13°C° 0.2 mm 2 mps 760 mmHg 78%
20:00 +13°C° 0.7 mm 2 mps 760 mmHg 82%
21:00 +13°C° 0.7 mm 1 mps 761 mmHg 87%
22:00 +13°C° 0.7 mm 1 mps 761 mmHg 91%
23:00 +13°C° 0.7 mm 1 mps 761 mmHg 93%
Show more